Time,TemperatureF,DewpointF,PressureIn,WindDirection,WindDirectionDegrees,WindSpeedMPH,WindSpeedGustMPH,Humidity,HourlyPrecipIn,Conditions,Clouds,dailyrainin,SoftwareType,DateUTC
2015-02-28 00:00:00,41.8,38.2,29.31,North,0,1.8,2.0,87,0.00,,,0.00,WUHU216HW,2015-02-28 08:00:00,
2015-02-28 00:05:00,41.6,38.3,29.31,North,0,0.7,3.4,88,0.00,,,0.00,WUHU216HW,2015-02-28 08:05:00,
2015-02-28 00:10:00,41.6,38.3,29.32,North,0,0.2,3.4,88,0.00,,,0.00,WUHU216HW,2015-02-28 08:10:00,
2015-02-28 00:15:00,41.6,38.6,29.32,NW,315,0.7,3.4,89,0.00,,,0.00,WUHU216HW,2015-02-28 08:15:00,
2015-02-28 00:20:00,41.4,38.1,29.32,NW,315,0.9,3.4,88,0.00,,,0.00,WUHU216HW,2015-02-28 08:20:00,
2015-02-28 00:25:00,41.6,38.6,29.32,North,0,0.7,2.2,89,0.00,,,0.00,WUHU216HW,2015-02-28 08:25:00,
2015-02-28 00:30:00,41.6,38.6,29.32,NW,315,1.8,3.1,89,0.00,,,0.00,WUHU216HW,2015-02-28 08:30:00,
2015-02-28 00:35:00,41.6,38.6,29.32,NNW,338,0.9,3.1,89,0.00,,,0.00,WUHU216HW,2015-02-28 08:35:00,
2015-02-28 00:40:00,41.8,38.8,29.32,NW,315,1.8,2.9,89,0.00,,,0.00,WUHU216HW,2015-02-28 08:40:00,
2015-02-28 00:45:00,41.8,38.8,29.33,NW,315,1.1,3.6,89,0.00,,,0.00,WUHU216HW,2015-02-28 08:45:00,
2015-02-28 00:50:00,41.8,38.4,29.33,NW,315,0.2,3.6,88,0.00,,,0.00,WUHU216HW,2015-02-28 08:50:00,
2015-02-28 00:55:00,41.8,38.4,29.33,ESE,113,0.9,2.7,88,0.00,,,0.00,WUHU216HW,2015-02-28 08:55:00,
2015-02-28 01:00:00,41.8,38.4,29.33,NNW,338,0.4,2.5,88,0.00,,,0.00,WUHU216HW,2015-02-28 09:00:00,
2015-02-28 01:05:00,41.8,38.8,29.33,North,0,0.4,2.7,89,0.00,,,0.00,WUHU216HW,2015-02-28 09:05:00,
2015-02-28 01:10:00,41.6,38.6,29.34,WNW,293,2.5,2.7,89,0.00,,,0.00,WUHU216HW,2015-02-28 09:10:00,
2015-02-28 01:15:00,41.6,38.6,29.33,NW,315,0.9,4.5,89,0.00,,,0.00,WUHU216HW,2015-02-28 09:15:00,
2015-02-28 01:20:00,41.8,38.4,29.34,NNW,338,1.1,4.5,88,0.00,,,0.00,WUHU216HW,2015-02-28 09:20:00,
2015-02-28 01:25:00,41.8,38.4,29.34,NNW,338,0.9,2.0,88,0.00,,,0.00,WUHU216HW,2015-02-28 09:25:00,
2015-02-28 01:30:00,41.8,38.4,29.34,NW,315,1.1,2.9,88,0.00,,,0.00,WUHU216HW,2015-02-28 09:30:00,
2015-02-28 01:35:00,41.8,38.2,29.34,NNW,338,0.7,2.9,87,0.00,,,0.00,WUHU216HW,2015-02-28 09:35:00,
2015-02-28 01:40:00,41.8,38.2,29.34,NW,315,0.7,2.2,87,0.00,,,0.00,WUHU216HW,2015-02-28 09:40:00,
2015-02-28 01:45:00,41.8,38.4,29.34,WSW,248,1.8,2.5,88,0.00,,,0.00,WUHU216HW,2015-02-28 09:45:00,
2015-02-28 01:50:00,41.8,38.2,29.35,NNW,338,4.0,6.3,87,0.00,,,0.00,WUHU216HW,2015-02-28 09:50:00,
2015-02-28 01:55:00,42.1,38.2,29.35,NNW,338,2.0,6.3,86,0.00,,,0.00,WUHU216HW,2015-02-28 09:55:00,
2015-02-28 02:00:00,42.1,38.2,29.36,NNW,338,2.5,4.7,86,0.00,,,0.00,WUHU216HW,2015-02-28 10:00:00,
2015-02-28 02:05:00,42.3,38.1,29.36,NNW,338,1.8,3.1,85,0.00,,,0.00,WUHU216HW,2015-02-28 10:05:00,
2015-02-28 02:10:00,42.5,38.3,29.36,NW,315,3.4,3.4,85,0.00,,,0.00,WUHU216HW,2015-02-28 10:10:00,
2015-02-28 02:15:00,42.5,38.3,29.36,NW,315,0.0,4.3,85,0.00,,,0.00,WUHU216HW,2015-02-28 10:15:00,
2015-02-28 02:20:00,42.3,38.1,29.36,NW,315,1.1,4.3,85,0.00,,,0.00,WUHU216HW,2015-02-28 10:20:00,
2015-02-28 02:25:00,42.1,38.2,29.36,North,0,1.8,2.9,86,0.00,,,0.00,WUHU216HW,2015-02-28 10:25:00,
2015-02-28 02:30:00,41.9,38.0,29.36,NNW,338,0.2,2.9,86,0.00,,,0.00,WUHU216HW,2015-02-28 10:30:00,
2015-02-28 02:35:00,41.8,37.8,29.36,NNW,338,0.0,1.8,86,0.00,,,0.00,WUHU216HW,2015-02-28 10:35:00,
2015-02-28 02:40:00,41.6,37.4,29.37,NNW,338,0.2,1.8,85,0.00,,,0.00,WUHU216HW,2015-02-28 10:40:00,
2015-02-28 02:45:00,41.6,37.1,29.37,North,0,2.0,2.5,84,0.00,,,0.00,WUHU216HW,2015-02-28 10:45:00,
2015-02-28 02:50:00,42.3,37.2,29.36,North,0,0.0,4.5,82,0.00,,,0.00,WUHU216HW,2015-02-28 10:50:00,
2015-02-28 02:55:00,42.7,36.5,29.36,North,0,2.0,4.5,79,0.00,,,0.00,WUHU216HW,2015-02-28 10:55:00,
2015-02-28 03:00:00,43.0,35.7,29.37,SE,135,1.1,4.0,75,0.00,,,0.00,WUHU216HW,2015-02-28 11:00:00,
2015-02-28 03:05:00,43.6,36.2,29.37,NNW,338,0.9,4.0,75,0.00,,,0.00,WUHU216HW,2015-02-28 11:05:00,
2015-02-28 03:10:00,43.4,35.6,29.37,NW,315,2.0,2.9,74,0.00,,,0.00,WUHU216HW,2015-02-28 11:10:00,
2015-02-28 03:15:00,43.4,36.3,29.37,East,90,0.0,2.9,76,0.00,,,0.00,WUHU216HW,2015-02-28 11:15:00,
2015-02-28 03:20:00,42.8,36.1,29.38,WNW,293,0.4,2.0,77,0.00,,,0.00,WUHU216HW,2015-02-28 11:20:00,
2015-02-28 03:25:00,42.5,36.1,29.38,NNW,338,0.4,1.8,78,0.00,,,0.00,WUHU216HW,2015-02-28 11:25:00,
2015-02-28 03:30:00,42.1,36.0,29.38,NNW,338,1.1,1.8,79,0.00,,,0.00,WUHU216HW,2015-02-28 11:30:00,
2015-02-28 03:35:00,41.8,36.3,29.38,NW,315,0.4,2.2,81,0.00,,,0.00,WUHU216HW,2015-02-28 11:35:00,
2015-02-28 03:40:00,41.4,35.9,29.39,NNW,338,0.2,2.2,81,0.00,,,0.00,WUHU216HW,2015-02-28 11:40:00,
2015-02-28 03:45:00,41.6,36.1,29.39,NNW,338,0.7,1.8,81,0.00,,,0.00,WUHU216HW,2015-02-28 11:45:00,
2015-02-28 03:50:00,41.4,36.3,29.39,NNW,338,1.3,2.0,82,0.00,,,0.00,WUHU216HW,2015-02-28 11:50:00,
2015-02-28 03:55:00,41.0,35.9,29.39,NNW,338,1.6,2.9,82,0.00,,,0.00,WUHU216HW,2015-02-28 11:55:00,
2015-02-28 04:00:00,41.0,35.9,29.40,NNW,338,1.3,2.9,82,0.00,,,0.00,WUHU216HW,2015-02-28 12:00:00,
2015-02-28 04:05:00,41.0,35.6,29.40,NW,315,1.8,2.0,81,0.00,,,0.00,WUHU216HW,2015-02-28 12:05:00,
2015-02-28 04:10:00,41.2,35.1,29.40,NW,315,2.0,3.4,79,0.00,,,0.00,WUHU216HW,2015-02-28 12:10:00,
2015-02-28 04:15:00,41.9,34.6,29.41,NNW,338,1.8,5.4,75,0.00,,,0.00,WUHU216HW,2015-02-28 12:15:00,
2015-02-28 04:20:00,41.8,35.4,29.41,ESE,113,0.4,5.4,78,0.00,,,0.00,WUHU216HW,2015-02-28 12:20:00,
2015-02-28 04:25:00,41.4,34.4,29.41,North,0,0.7,3.8,76,0.00,,,0.00,WUHU216HW,2015-02-28 12:25:00,
2015-02-28 04:30:00,42.3,33.7,29.41,East,90,2.5,6.0,71,0.00,,,0.00,WUHU216HW,2015-02-28 12:30:00,
2015-02-28 04:35:00,42.8,34.8,29.42,NNW,338,0.4,6.0,73,0.00,,,0.00,WUHU216HW,2015-02-28 12:35:00,
2015-02-28 04:40:00,42.1,34.4,29.42,NW,315,0.4,4.7,74,0.00,,,0.00,WUHU216HW,2015-02-28 12:40:00,
2015-02-28 04:45:00,41.8,34.4,29.43,NW,315,0.4,4.7,75,0.00,,,0.00,WUHU216HW,2015-02-28 12:45:00,
2015-02-28 04:50:00,41.6,34.2,29.43,NW,315,1.3,3.8,75,0.00,,,0.00,WUHU216HW,2015-02-28 12:50:00,
2015-02-28 04:55:00,41.2,34.5,29.44,NE,45,1.1,1.8,77,0.00,,,0.00,WUHU216HW,2015-02-28 12:55:00,
2015-02-28 05:00:00,41.4,34.7,29.44,NNW,338,2.5,3.4,77,0.00,,,0.00,WUHU216HW,2015-02-28 13:00:00,
2015-02-28 05:05:00,41.4,33.7,29.44,North,0,1.8,3.4,74,0.00,,,0.00,WUHU216HW,2015-02-28 13:05:00,
2015-02-28 05:10:00,41.4,34.4,29.44,North,0,1.1,4.0,76,0.00,,,0.00,WUHU216HW,2015-02-28 13:10:00,
2015-02-28 05:15:00,40.9,34.1,29.44,North,0,2.0,4.0,77,0.00,,,0.00,WUHU216HW,2015-02-28 13:15:00,
2015-02-28 05:20:00,40.7,33.9,29.44,NW,315,3.4,3.4,77,0.00,,,0.00,WUHU216HW,2015-02-28 13:20:00,
2015-02-28 05:25:00,41.2,33.2,29.44,North,0,0.4,3.4,73,0.00,,,0.00,WUHU216HW,2015-02-28 13:25:00,
2015-02-28 05:30:00,41.2,33.5,29.44,NNW,338,1.3,3.4,74,0.00,,,0.00,WUHU216HW,2015-02-28 13:30:00,
2015-02-28 05:35:00,41.0,33.0,29.44,NE,45,0.4,2.5,73,0.00,,,0.00,WUHU216HW,2015-02-28 13:35:00,
2015-02-28 05:40:00,41.4,33.4,29.44,NNW,338,1.1,2.2,73,0.00,,,0.00,WUHU216HW,2015-02-28 13:40:00,
2015-02-28 05:45:00,41.4,33.0,29.45,NNW,338,1.1,2.2,72,0.00,,,0.00,WUHU216HW,2015-02-28 13:45:00,
2015-02-28 05:50:00,40.7,33.3,29.45,NNW,338,1.1,2.2,75,0.00,,,0.00,WUHU216HW,2015-02-28 13:50:00,
2015-02-28 05:55:00,40.0,33.7,29.46,NNW,338,0.4,2.7,78,0.00,,,0.00,WUHU216HW,2015-02-28 13:55:00,
2015-02-28 06:00:00,39.2,32.9,29.46,NNW,338,0.0,2.7,78,0.00,,,0.00,WUHU216HW,2015-02-28 14:00:00,
2015-02-28 06:05:00,39.4,32.8,29.46,NNW,338,2.7,3.4,77,0.00,,,0.00,WUHU216HW,2015-02-28 14:05:00,
2015-02-28 06:10:00,39.4,32.8,29.46,NNW,338,0.7,4.7,77,0.00,,,0.00,WUHU216HW,2015-02-28 14:10:00,
2015-02-28 06:15:00,39.4,32.5,29.46,NNW,338,1.6,4.7,76,0.00,,,0.00,WUHU216HW,2015-02-28 14:15:00,
2015-02-28 06:20:00,39.4,32.5,29.46,NNE,23,1.3,4.5,76,0.00,,,0.00,WUHU216HW,2015-02-28 14:20:00,
2015-02-28 06:25:00,39.6,32.0,29.46,WNW,293,0.2,3.4,74,0.00,,,0.00,WUHU216HW,2015-02-28 14:25:00,
2015-02-28 06:30:00,40.0,31.3,29.47,NNE,23,0.4,3.1,71,0.00,,,0.00,WUHU216HW,2015-02-28 14:30:00,
2015-02-28 06:35:00,40.0,31.3,29.47,NW,315,2.5,3.1,71,0.00,,,0.00,WUHU216HW,2015-02-28 14:35:00,
2015-02-28 06:40:00,40.0,31.3,29.47,North,0,0.7,2.9,71,0.00,,,0.00,WUHU216HW,2015-02-28 14:40:00,
2015-02-28 06:45:00,39.6,30.6,29.47,NNW,338,1.1,2.9,70,0.00,,,0.00,WUHU216HW,2015-02-28 14:45:00,
2015-02-28 06:50:00,39.4,31.8,29.48,NNW,338,2.7,3.1,74,0.00,,,0.00,WUHU216HW,2015-02-28 14:50:00,
2015-02-28 06:55:00,38.9,31.6,29.48,NW,315,0.4,3.1,75,0.00,,,0.00,WUHU216HW,2015-02-28 14:55:00,
2015-02-28 07:00:00,38.7,31.8,29.49,NNW,338,0.7,2.7,76,0.00,,,0.00,WUHU216HW,2015-02-28 15:00:00,
2015-02-28 07:05:00,38.5,31.0,29.49,NNW,338,0.4,2.0,74,0.00,,,0.00,WUHU216HW,2015-02-28 15:05:00,
2015-02-28 07:10:00,38.5,31.6,29.49,NNW,338,0.4,2.0,76,0.00,,,0.00,WUHU216HW,2015-02-28 15:10:00,
2015-02-28 07:15:00,38.2,31.2,29.49,NNW,338,0.7,1.8,76,0.00,,,0.00,WUHU216HW,2015-02-28 15:15:00,
2015-02-28 07:20:00,37.8,31.6,29.49,NNW,338,1.3,2.5,78,0.00,,,0.00,WUHU216HW,2015-02-28 15:20:00,
2015-02-28 07:25:00,37.8,31.2,29.50,NNW,338,1.1,3.4,77,0.00,,,0.00,WUHU216HW,2015-02-28 15:25:00,
2015-02-28 07:30:00,37.8,31.2,29.51,NNW,338,0.0,3.4,77,0.00,,,0.00,WUHU216HW,2015-02-28 15:30:00,
2015-02-28 07:35:00,37.8,31.2,29.51,North,0,0.4,2.0,77,0.00,,,0.00,WUHU216HW,2015-02-28 15:35:00,
2015-02-28 07:40:00,37.8,30.9,29.51,NNW,338,1.8,2.2,76,0.00,,,0.00,WUHU216HW,2015-02-28 15:40:00,
2015-02-28 07:45:00,38.2,31.6,29.52,North,0,0.7,2.2,77,0.00,,,0.00,WUHU216HW,2015-02-28 15:45:00,
2015-02-28 07:50:00,38.5,32.0,29.52,NW,315,0.7,2.5,77,0.00,,,0.00,WUHU216HW,2015-02-28 15:50:00,
2015-02-28 07:55:00,38.7,32.5,29.52,NNW,338,0.4,2.5,78,0.00,,,0.00,WUHU216HW,2015-02-28 15:55:00,
2015-02-28 08:00:00,38.9,32.9,29.52,NNW,338,0.4,2.5,79,0.00,,,0.00,WUHU216HW,2015-02-28 16:00:00,
2015-02-28 08:05:00,38.9,32.9,29.53,NNW,338,1.1,1.8,79,0.00,,,0.00,WUHU216HW,2015-02-28 16:05:00,
2015-02-28 08:10:00,39.2,33.3,29.53,NNW,338,0.9,1.3,79,0.00,,,0.00,WUHU216HW,2015-02-28 16:10:00,
2015-02-28 08:15:00,39.8,33.5,29.54,NNW,338,1.1,1.6,78,0.00,,,0.00,WUHU216HW,2015-02-28 16:15:00,
2015-02-28 08:20:00,40.3,33.7,29.54,NNW,338,0.4,1.8,77,0.00,,,0.00,WUHU216HW,2015-02-28 16:20:00,
2015-02-28 08:25:00,40.9,34.1,29.54,SSE,158,0.4,1.8,77,0.00,,,0.00,WUHU216HW,2015-02-28 16:25:00,
2015-02-28 08:30:00,41.4,33.4,29.54,NNW,338,0.0,1.8,73,0.00,,,0.00,WUHU216HW,2015-02-28 16:30:00,
2015-02-28 08:35:00,41.9,33.9,29.54,NW,315,0.2,3.4,73,0.00,,,0.00,WUHU216HW,2015-02-28 16:35:00,
2015-02-28 08:40:00,42.8,35.1,29.54,SE,135,0.9,4.0,74,0.00,,,0.00,WUHU216HW,2015-02-28 16:40:00,
2015-02-28 08:45:00,42.8,35.8,29.54,SW,225,0.7,4.0,76,0.00,,,0.00,WUHU216HW,2015-02-28 16:45:00,
2015-02-28 08:50:00,43.2,36.5,29.54,SSE,158,1.8,2.5,77,0.00,,,0.00,WUHU216HW,2015-02-28 16:50:00,
2015-02-28 08:55:00,43.6,36.8,29.54,SSE,158,0.9,1.8,77,0.00,,,0.00,WUHU216HW,2015-02-28 16:55:00,
2015-02-28 09:00:00,44.3,37.5,29.54,SSE,158,0.2,1.8,77,0.00,,,0.00,WUHU216HW,2015-02-28 17:00:00,
2015-02-28 09:05:00,44.6,37.2,29.54,SSE,158,0.7,1.3,75,0.00,,,0.00,WUHU216HW,2015-02-28 17:05:00,
2015-02-28 09:10:00,44.8,37.7,29.55,SSE,158,1.1,1.3,76,0.00,,,0.00,WUHU216HW,2015-02-28 17:10:00,
2015-02-28 09:15:00,45.5,38.1,29.54,SSE,158,0.0,2.7,75,0.00,,,0.00,WUHU216HW,2015-02-28 17:15:00,
2015-02-28 09:20:00,46.3,39.2,29.55,SE,135,2.7,2.7,76,0.00,,,0.00,WUHU216HW,2015-02-28 17:20:00,
2015-02-28 09:25:00,46.6,39.5,29.55,SE,135,1.3,2.9,76,0.00,,,0.00,WUHU216HW,2015-02-28 17:25:00,
2015-02-28 09:30:00,46.8,38.3,29.56,SSE,158,1.1,2.9,72,0.00,,,0.00,WUHU216HW,2015-02-28 17:30:00,
2015-02-28 09:35:00,47.0,38.4,29.56,ESE,113,1.8,2.5,72,0.00,,,0.00,WUHU216HW,2015-02-28 17:35:00,
2015-02-28 09:40:00,47.2,38.6,29.56,South,180,2.5,2.5,72,0.00,,,0.00,WUHU216HW,2015-02-28 17:40:00,
2015-02-28 09:45:00,47.7,38.4,29.56,East,90,3.4,3.4,70,0.00,,,0.00,WUHU216HW,2015-02-28 17:45:00,
2015-02-28 09:50:00,47.5,37.4,29.56,ESE,113,1.8,4.0,68,0.00,,,0.00,WUHU216HW,2015-02-28 17:50:00,
2015-02-28 09:55:00,47.9,35.9,29.56,SE,135,4.0,5.1,63,0.00,,,0.00,WUHU216HW,2015-02-28 17:55:00,
2015-02-28 10:00:00,48.2,35.5,29.56,ENE,68,3.4,7.6,61,0.00,,,0.00,WUHU216HW,2015-02-28 18:00:00,
2015-02-28 10:05:00,48.6,36.5,29.57,ESE,113,3.1,7.6,63,0.00,,,0.00,WUHU216HW,2015-02-28 18:05:00,
2015-02-28 10:10:00,49.0,35.7,29.57,East,90,2.5,5.8,60,0.00,,,0.00,WUHU216HW,2015-02-28 18:10:00,
2015-02-28 10:15:00,49.1,36.7,29.57,ESE,113,2.9,5.8,62,0.00,,,0.00,WUHU216HW,2015-02-28 18:15:00,
2015-02-28 10:20:00,49.5,35.3,29.57,SSE,158,1.1,4.0,58,0.00,,,0.00,WUHU216HW,2015-02-28 18:20:00,
2015-02-28 10:25:00,50.0,34.9,29.58,South,180,2.2,3.6,56,0.00,,,0.00,WUHU216HW,2015-02-28 18:25:00,
2015-02-28 10:30:00,50.4,35.3,29.58,SSW,203,0.4,4.3,56,0.00,,,0.00,WUHU216HW,2015-02-28 18:30:00,
2015-02-28 10:35:00,50.8,35.1,29.58,NE,45,1.1,4.3,55,0.00,,,0.00,WUHU216HW,2015-02-28 18:35:00,
2015-02-28 10:40:00,50.4,32.6,29.58,SE,135,0.4,5.6,50,0.00,,,0.00,WUHU216HW,2015-02-28 18:40:00,
2015-02-28 10:45:00,50.4,33.5,29.58,ESE,113,1.8,5.6,52,0.00,,,0.00,WUHU216HW,2015-02-28 18:45:00,
2015-02-28 10:50:00,50.9,31.3,29.58,SE,135,4.5,5.1,47,0.00,,,0.00,WUHU216HW,2015-02-28 18:50:00,
2015-02-28 10:55:00,50.9,30.8,29.58,ESE,113,1.8,8.5,46,0.00,,,0.00,WUHU216HW,2015-02-28 18:55:00,
2015-02-28 11:00:00,51.1,31.5,29.58,East,90,1.8,8.7,47,0.00,,,0.00,WUHU216HW,2015-02-28 19:00:00,
2015-02-28 11:05:00,51.3,31.7,29.58,ESE,113,4.7,8.7,47,0.00,,,0.00,WUHU216HW,2015-02-28 19:05:00,
2015-02-28 11:10:00,51.5,31.3,29.58,ESE,113,4.0,7.6,46,0.00,,,0.00,WUHU216HW,2015-02-28 19:10:00,
2015-02-28 11:15:00,52.2,32.0,29.58,SE,135,3.6,5.4,46,0.00,,,0.00,WUHU216HW,2015-02-28 19:15:00,
2015-02-28 11:20:00,52.7,32.4,29.59,SSE,158,4.0,5.4,46,0.00,,,0.00,WUHU216HW,2015-02-28 19:20:00,
2015-02-28 11:25:00,52.7,32.4,29.59,SE,135,4.3,5.1,46,0.00,,,0.00,WUHU216HW,2015-02-28 19:25:00,
2015-02-28 11:30:00,52.9,31.5,29.59,SE,135,2.5,5.4,44,0.00,,,0.00,WUHU216HW,2015-02-28 19:30:00,
2015-02-28 11:35:00,52.9,29.8,29.58,SE,135,2.7,5.4,41,0.00,,,0.00,WUHU216HW,2015-02-28 19:35:00,
2015-02-28 11:40:00,53.1,31.1,29.58,SE,135,3.6,5.4,43,0.00,,,0.00,WUHU216HW,2015-02-28 19:40:00,
2015-02-28 11:45:00,53.6,32.1,29.59,South,180,2.5,6.7,44,0.00,,,0.00,WUHU216HW,2015-02-28 19:45:00,
2015-02-28 11:50:00,53.8,31.1,29.59,East,90,7.4,9.2,42,0.00,,,0.00,WUHU216HW,2015-02-28 19:50:00,
2015-02-28 11:55:00,54.0,30.3,29.58,ESE,113,3.1,9.2,40,0.00,,,0.00,WUHU216HW,2015-02-28 19:55:00,
2015-02-28 12:00:00,54.4,30.5,29.58,SE,135,4.7,8.7,40,0.00,,,0.00,WUHU216HW,2015-02-28 20:00:00,
2015-02-28 12:05:00,54.0,30.3,29.58,SSE,158,3.1,8.7,40,0.00,,,0.00,WUHU216HW,2015-02-28 20:05:00,
2015-02-28 12:10:00,54.0,30.8,29.58,NE,45,3.6,5.1,41,0.00,,,0.00,WUHU216HW,2015-02-28 20:10:00,
2015-02-28 12:15:00,54.0,28.2,29.58,ESE,113,4.9,5.1,37,0.00,,,0.00,WUHU216HW,2015-02-28 20:15:00,
2015-02-28 12:20:00,54.4,30.5,29.58,ESE,113,1.1,4.9,40,0.00,,,0.00,WUHU216HW,2015-02-28 20:20:00,
2015-02-28 12:26:00,54.9,29.6,29.57,ESE,113,3.1,6.3,38,0.00,,,0.00,WUHU216HW,2015-02-28 20:26:00,
2015-02-28 12:31:00,54.9,26.8,29.57,East,90,1.3,6.3,34,0.00,,,0.00,WUHU216HW,2015-02-28 20:31:00,
2015-02-28 12:36:00,54.9,28.9,29.57,East,90,4.7,4.7,37,0.00,,,0.00,WUHU216HW,2015-02-28 20:36:00,
2015-02-28 12:41:00,54.5,28.6,29.57,SW,225,4.7,8.1,37,0.00,,,0.00,WUHU216HW,2015-02-28 20:41:00,
2015-02-28 12:46:00,55.1,28.4,29.57,SE,135,3.1,8.1,36,0.00,,,0.00,WUHU216HW,2015-02-28 20:46:00,
2015-02-28 12:51:00,55.6,31.7,29.57,ENE,68,2.9,4.7,40,0.00,,,0.00,WUHU216HW,2015-02-28 20:51:00,
2015-02-28 12:56:00,55.4,27.3,29.57,ESE,113,2.9,4.9,34,0.00,,,0.00,WUHU216HW,2015-02-28 20:56:00,
2015-02-28 13:01:00,54.9,27.6,29.57,ESE,113,4.0,4.9,35,0.00,,,0.00,WUHU216HW,2015-02-28 21:01:00,
2015-02-28 13:06:00,54.7,29.4,29.57,ESE,113,3.6,5.8,38,0.00,,,0.00,WUHU216HW,2015-02-28 21:06:00,
2015-02-28 13:11:00,55.1,29.8,29.57,ENE,68,2.0,5.8,38,0.00,,,0.00,WUHU216HW,2015-02-28 21:11:00,
2015-02-28 13:16:00,55.4,28.7,29.57,ENE,68,3.4,4.3,36,0.00,,,0.00,WUHU216HW,2015-02-28 21:16:00,
2015-02-28 13:21:00,55.1,29.1,29.57,SE,135,4.0,4.0,37,0.00,,,0.00,WUHU216HW,2015-02-28 21:21:00,
2015-02-28 13:26:00,55.4,30.1,29.57,SE,135,2.5,5.8,38,0.00,,,0.00,WUHU216HW,2015-02-28 21:26:00,
2015-02-28 13:31:00,56.0,29.9,29.57,East,90,2.7,5.8,37,0.00,,,0.00,WUHU216HW,2015-02-28 21:31:00,
2015-02-28 13:36:00,56.0,29.2,29.57,ENE,68,2.0,4.3,36,0.00,,,0.00,WUHU216HW,2015-02-28 21:36:00,
2015-02-28 13:41:00,56.2,27.9,29.57,East,90,0.4,4.9,34,0.00,,,0.00,WUHU216HW,2015-02-28 21:41:00,
2015-02-28 13:46:00,56.7,28.5,29.57,SW,225,1.1,4.9,34,0.00,,,0.00,WUHU216HW,2015-02-28 21:46:00,
2015-02-28 13:51:00,56.7,28.5,29.57,SE,135,4.0,4.0,34,0.00,,,0.00,WUHU216HW,2015-02-28 21:51:00,
2015-02-28 13:56:00,56.5,29.7,29.57,ESE,113,5.4,6.0,36,0.00,,,0.00,WUHU216HW,2015-02-28 21:56:00,
2015-02-28 14:01:00,56.3,27.4,29.57,East,90,2.0,6.0,33,0.00,,,0.00,WUHU216HW,2015-02-28 22:01:00,
2015-02-28 14:06:00,56.5,29.7,29.57,North,0,2.5,5.4,36,0.00,,,0.00,WUHU216HW,2015-02-28 22:06:00,
2015-02-28 14:11:00,56.7,31.2,29.57,ESE,113,3.4,4.5,38,0.00,,,0.00,WUHU216HW,2015-02-28 22:11:00,
2015-02-28 14:16:00,57.1,28.7,29.57,ESE,113,1.8,6.5,34,0.00,,,0.00,WUHU216HW,2015-02-28 22:16:00,
2015-02-28 14:21:00,57.1,27.4,29.58,ESE,113,6.9,7.6,32,0.00,,,0.00,WUHU216HW,2015-02-28 22:21:00,
2015-02-28 14:26:00,56.3,27.4,29.57,SSE,158,2.0,7.6,33,0.00,,,0.00,WUHU216HW,2015-02-28 22:26:00,
2015-02-28 14:31:00,57.2,29.6,29.58,ESE,113,0.9,4.0,35,0.00,,,0.00,WUHU216HW,2015-02-28 22:31:00,
2015-02-28 14:36:00,57.4,28.4,29.58,ESE,113,4.5,4.9,33,0.00,,,0.00,WUHU216HW,2015-02-28 22:36:00,
2015-02-28 14:41:00,56.9,26.5,29.58,SW,225,4.0,4.9,31,0.00,,,0.00,WUHU216HW,2015-02-28 22:41:00,
2015-02-28 14:46:00,56.3,28.1,29.58,ESE,113,3.1,6.3,34,0.00,,,0.00,WUHU216HW,2015-02-28 22:46:00,
2015-02-28 14:51:00,56.5,28.3,29.58,East,90,6.5,6.7,34,0.00,,,0.00,WUHU216HW,2015-02-28 22:51:00,
2015-02-28 14:56:00,55.8,26.2,29.58,SE,135,2.5,8.3,32,0.00,,,0.00,WUHU216HW,2015-02-28 22:56:00,
2015-02-28 15:01:00,55.8,25.5,29.58,SSE,158,5.1,8.3,31,0.00,,,0.00,WUHU216HW,2015-02-28 23:01:00,
2015-02-28 15:06:00,56.0,27.1,29.58,East,90,3.8,6.5,33,0.00,,,0.00,WUHU216HW,2015-02-28 23:06:00,
2015-02-28 15:11:00,56.2,29.3,29.58,East,90,1.1,5.4,36,0.00,,,0.00,WUHU216HW,2015-02-28 23:11:00,
2015-02-28 15:16:00,56.2,28.6,29.58,ESE,113,1.1,4.0,35,0.00,,,0.00,WUHU216HW,2015-02-28 23:16:00,
2015-02-28 15:21:00,56.3,26.7,29.58,SE,135,3.6,4.7,32,0.00,,,0.00,WUHU216HW,2015-02-28 23:21:00,
2015-02-28 15:26:00,56.2,27.3,29.58,East,90,3.1,5.1,33,0.00,,,0.00,WUHU216HW,2015-02-28 23:26:00,
2015-02-28 15:31:00,55.8,27.6,29.57,SE,135,2.9,5.1,34,0.00,,,0.00,WUHU216HW,2015-02-28 23:31:00,
2015-02-28 15:36:00,55.8,27.6,29.58,ESE,113,1.8,4.0,34,0.00,,,0.00,WUHU216HW,2015-02-28 23:36:00,
2015-02-28 15:41:00,55.8,27.6,29.58,SSE,158,2.7,4.0,34,0.00,,,0.00,WUHU216HW,2015-02-28 23:41:00,
2015-02-28 15:46:00,56.0,27.1,29.57,SE,135,0.9,4.0,33,0.00,,,0.00,WUHU216HW,2015-02-28 23:46:00,
2015-02-28 15:51:00,55.8,27.6,29.58,ESE,113,2.5,4.9,34,0.00,,,0.00,WUHU216HW,2015-02-28 23:51:00,
2015-02-28 15:56:00,55.4,26.6,29.58,ESE,113,2.7,4.9,33,0.00,,,0.00,WUHU216HW,2015-02-28 23:56:00,
2015-02-28 16:01:00,55.1,26.3,29.58,ENE,68,2.5,4.9,33,0.00,,,0.00,WUHU216HW,2015-03-01 00:01:00,
2015-02-28 16:06:00,55.4,26.6,29.58,SE,135,1.3,4.9,33,0.00,,,0.00,WUHU216HW,2015-03-01 00:06:00,
2015-02-28 16:11:00,55.4,25.9,29.58,ESE,113,1.8,4.3,32,0.00,,,0.00,WUHU216HW,2015-03-01 00:11:00,
2015-02-28 16:16:00,55.1,26.3,29.58,SE,135,2.2,4.3,33,0.00,,,0.00,WUHU216HW,2015-03-01 00:16:00,
2015-02-28 16:21:00,55.1,27.7,29.58,SE,135,0.4,4.0,35,0.00,,,0.00,WUHU216HW,2015-03-01 00:21:00,
2015-02-28 16:26:00,55.1,26.3,29.58,SE,135,1.6,4.0,33,0.00,,,0.00,WUHU216HW,2015-03-01 00:26:00,
2015-02-28 16:31:00,55.1,27.0,29.58,ENE,68,3.1,4.0,34,0.00,,,0.00,WUHU216HW,2015-03-01 00:31:00,
2015-02-28 16:36:00,54.7,26.6,29.57,ESE,113,1.6,3.4,34,0.00,,,0.00,WUHU216HW,2015-03-01 00:36:00,
2015-02-28 16:41:00,54.5,27.9,29.58,SE,135,0.9,3.4,36,0.00,,,0.00,WUHU216HW,2015-03-01 00:41:00,
2015-02-28 16:46:00,54.4,27.7,29.57,ESE,113,1.6,4.5,36,0.00,,,0.00,WUHU216HW,2015-03-01 00:46:00,
2015-02-28 16:51:00,54.0,28.2,29.57,ESE,113,0.9,4.5,37,0.00,,,0.00,WUHU216HW,2015-03-01 00:51:00,
2015-02-28 16:56:00,53.6,26.5,29.57,ESE,113,3.4,3.4,35,0.00,,,0.00,WUHU216HW,2015-03-01 00:56:00,
2015-02-28 17:01:00,53.3,27.6,29.57,ESE,113,1.8,4.7,37,0.00,,,0.00,WUHU216HW,2015-03-01 01:01:00,